GFSSE_925_thetae_057.txt.gz
Theta_e
337 337 338 337 337 336 335 332 337 339 339 338 336 336 335 334 333 333 333 332 331 332 333 334 336 335 336 338 334 333 334 333 333 332 334 334 334 335 337 337 338 339 338
336 338 337 337 334 332 331 331 338 340 340 338 337 335 334 333 332 332 332 331 330 328 328 331 333 334 336 334 331 333 334 333 332 332 332 332 331 332 332 334 336 336 337
337 338 337 333 331 332 334 336 338 338 340 338 336 335 333 332 330 330 330 328 328 327 325 326 327 330 333 330 333 333 333 331 329 329 329 330 331 330 330 330 332 333 334
337 338 336 334 333 335 337 338 338 339 339 338 335 332 331 329 329 325 323 324 325 324 324 323 321 323 329 328 330 330 329 328 327 325 323 325 326 328 329 328 329 328 328
339 339 336 334 334 334 335 336 337 338 338 337 336 333 331 326 324 322 318 315 316 318 317 316 314 318 324 326 327 327 326 326 324 320 317 321 325 326 327 326 326 326 325
339 339 337 335 334 334 334 334 336 337 336 336 334 333 329 326 326 325 324 322 316 306 304 304 305 312 319 322 323 321 320 319 316 314 318 322 323 323 324 325 325 325 325
339 339 339 336 335 334 334 334 334 335 335 335 334 333 330 328 327 326 324 323 322 313 302 302 304 308 313 315 315 314 313 311 309 312 319 323 323 323 322 323 323 323 324
338 339 339 339 336 335 334 334 334 334 334 334 334 332 331 329 327 326 324 323 322 320 309 301 302 305 308 309 308 308 307 304 304 307 315 320 323 323 323 323 323 323 323
340 338 338 339 338 337 334 335 335 333 333 332 333 334 331 329 327 325 324 323 322 321 319 314 303 301 302 303 304 304 303 302 302 304 312 318 321 322 323 323 322 322 322
341 340 340 339 339 339 337 337 336 334 333 332 332 334 332 330 327 326 325 323 323 322 321 320 317 311 303 302 302 302 302 302 301 303 311 315 318 320 321 324 324 323 322
337 339 339 337 339 339 337 338 337 335 334 333 332 333 332 331 329 327 325 323 323 322 321 321 320 318 313 308 306 305 304 305 305 303 308 313 315 317 317 319 321 323 325
334 335 336 335 337 337 338 338 337 336 334 333 334 333 333 331 330 328 326 324 323 322 321 320 320 318 317 314 313 313 311 309 308 308 311 315 318 318 317 317 316 316 317
328 331 332 333 335 335 335 335 337 337 335 334 334 334 333 332 331 329 327 325 323 323 321 320 319 318 316 315 314 313 311 309 308 307 310 315 316 317 317 317 317 316 315
316 318 321 328 333 334 334 332 335 337 335 333 334 333 333 333 331 330 328 327 325 323 322 321 319 318 318 318 317 315 311 309 308 308 308 310 313 314 314 315 315 315 315
310 311 311 311 314 323 330 330 333 337 335 335 334 333 333 333 332 328 328 327 326 325 323 321 322 320 319 319 317 315 310 308 308 307 305 306 308 305 305 308 310 311 312
310 310 310 311 312 313 326 329 331 333 334 335 334 334 334 333 331 329 328 327 325 323 322 321 320 319 319 317 314 311 308 306 305 303 302 301 301 300 299 303 304 306 308
309 309 310 312 312 314 322 328 330 332 334 334 332 333 333 333 331 328 327 325 324 322 320 320 319 317 315 313 311 308 305 303 301 298 296 294 293 292 292 296 299 300 301
308 309 311 315 316 317 324 326 330 331 332 332 332 332 331 330 328 327 325 323 321 319 318 317 316 312 310 309 306 303 301 300 297 294 292 290 289 288 289 289 290 294 297
308 310 312 315 316 319 325 325 327 327 329 328 328 329 327 327 326 324 322 320 318 317 317 316 309 309 307 304 302 301 298 295 292 291 289 288 288 288 287 288 288 287 292
308 311 312 314 314 317 322 322 324 324 324 325 325 325 325 324 321 319 317 316 316 313 308 305 307 307 304 302 300 296 293 291 290 289 287 287 287 287 286 286 286 286 286
309 311 312 313 314 316 318 318 317 318 317 318 318 319 320 319 318 317 315 313 311 307 298 302 306 305 302 300 298 291 290 289 288 287 286 286 286 285 285 285 285 285 285
309 311 312 313 314 316 317 315 315 314 312 313 314 315 315 314 313 312 312 309 304 297 295 303 305 302 300 300 300 298 295 295 293 287 286 286 285 285 285 284 284 284 283
309 311 311 312 313 314 311 312 312 308 307 306 306 309 310 309 308 307 307 303 296 294 293 293 296 299 292 293 301 298 291 294 290 294 286 285 285 285 284 284 284 283 283
308 310 311 312 311 311 312 310 312 308 302 302 304 304 303 301 300 301 297 293 293 293 293 292 292 292 291 289 289 288 288 288 285 285 286 285 285 284 284 283 283 283 283
307 310 311 311 308 310 310 310 308 303 303 303 301 299 295 293 292 292 292 292 292 292 291 291 291 290 290 289 288 287 286 285 285 285 283 284 284 284 283 283 283 283 282
307 309 309 308 308 308 307 306 305 305 302 297 296 293 290 290 290 290 290 290 290 291 291 290 289 289 288 288 287 286 286 285 284 284 282 282 282 284 283 283 282 282 281

GFSSE_925_thetae_060.txt.gz
Theta_e
338 338 336 336 336 337 335 338 339 339 337 337 336 333 331 333 333 332 331 331 332 333 334 335 334 335 334 335 335 334 333 332 332 332 332 332 333 335 335 335 336 337 338
337 338 336 336 336 335 334 339 339 339 335 336 333 334 332 332 332 331 331 330 328 330 332 332 335 334 337 334 334 334 330 329 328 328 330 330 329 331 331 332 333 335 336
337 337 337 335 333 332 334 339 339 340 337 335 335 333 332 331 331 330 329 328 327 328 329 331 333 332 334 336 334 330 328 326 324 324 324 326 327 327 328 329 330 331 332
337 337 335 331 331 334 337 336 338 339 337 336 334 333 331 329 327 325 323 322 324 324 325 328 330 329 331 329 328 326 325 323 317 315 320 325 326 327 326 327 327 327 325
338 337 335 333 334 335 337 337 338 338 336 332 332 331 328 326 324 321 319 317 319 319 321 324 326 329 328 327 326 324 322 316 313 317 321 322 324 325 325 325 325 325 325
338 337 335 334 334 334 335 335 337 337 336 331 331 329 327 326 325 323 322 316 313 316 317 320 322 322 323 320 316 313 312 312 315 320 322 323 323 324 324 324 324 323 323
338 337 335 334 333 333 333 334 335 336 336 334 334 330 327 326 325 324 322 320 310 307 310 313 314 314 314 312 310 308 306 308 312 318 322 323 324 324 324 324 324 324 323
338 338 336 335 333 333 334 334 334 335 335 335 332 329 328 327 325 324 322 321 317 308 306 308 307 307 307 307 305 302 303 308 313 318 320 322 324 324 323 323 323 322 322
338 338 339 337 335 334 334 334 333 333 333 333 333 331 329 327 325 324 322 321 320 318 310 306 304 305 304 303 302 301 302 306 312 316 317 319 321 324 326 326 325 324 322
339 339 339 338 337 336 334 335 334 333 332 332 334 331 329 327 325 324 323 322 321 320 317 312 306 303 302 302 302 301 301 302 308 313 316 318 319 319 319 320 321 322 324
340 340 340 339 338 338 336 335 335 334 333 332 332 333 330 328 327 324 323 322 321 319 318 316 314 309 308 308 306 309 309 308 312 317 319 319 319 319 318 317 318 318 318
339 337 339 337 335 337 337 336 337 335 333 332 332 332 331 329 328 326 323 322 322 321 319 317 316 315 315 314 312 311 309 310 313 316 317 318 320 320 319 319 319 319 317
333 334 335 335 334 336 337 338 337 336 334 332 332 333 332 330 329 327 325 323 322 321 319 317 316 316 316 315 313 311 309 310 311 313 314 314 314 316 316 317 316 316 316
331 332 332 333 334 333 334 335 334 337 335 333 333 333 333 331 330 328 326 324 323 322 319 317 317 316 317 315 312 309 308 309 309 309 307 306 308 312 313 313 313 313 313
324 326 328 328 330 332 334 333 331 332 336 333 333 333 332 332 331 329 327 326 324 323 321 320 319 318 317 314 310 308 307 305 305 305 303 301 302 306 307 307 308 309 310
314 315 315 314 316 323 329 332 331 331 335 335 332 332 332 332 331 330 327 326 325 324 321 320 319 318 315 311 308 307 304 301 299 297 295 294 294 298 301 301 303 305 306
310 310 310 310 311 312 314 324 329 330 334 334 335 334 333 333 332 329 327 326 324 322 321 319 318 316 313 308 305 302 299 297 295 293 291 290 290 290 291 297 299 301 303
309 309 309 310 311 312 314 320 328 329 330 333 334 333 333 332 332 329 327 325 323 321 320 317 315 312 309 305 302 297 295 293 291 290 289 289 288 288 288 288 293 298 299
308 308 309 310 312 314 318 320 327 327 330 331 332 332 332 331 329 328 325 323 321 319 317 315 312 311 305 300 296 293 291 290 288 288 287 287 287 287 287 287 287 289 292
307 307 309 311 313 315 318 320 325 327 328 327 329 330 330 329 327 324 323 321 319 317 314 310 309 305 302 297 292 289 288 287 287 287 286 286 286 286 286 286 285 285 285
305 307 309 312 314 314 316 317 321 323 324 325 325 326 326 326 322 322 321 318 316 315 311 308 305 303 297 295 293 288 286 286 286 286 286 286 285 285 285 284 284 284 284
305 307 309 311 312 313 315 315 319 320 318 321 320 321 322 322 321 320 317 314 311 304 304 307 305 300 296 297 294 294 292 292 287 285 285 285 285 284 284 284 284 284 284
304 306 309 310 311 312 314 314 316 315 313 313 313 314 315 318 317 316 315 312 303 300 304 305 304 304 298 299 299 300 293 296 291 290 285 284 284 284 284 284 283 283 283
304 305 308 311 310 312 313 313 315 314 307 310 312 312 312 313 312 312 310 305 296 298 303 303 303 302 302 296 294 291 290 290 285 284 285 284 284 284 284 283 283 283 283
303 305 308 310 310 310 312 313 312 310 310 311 308 308 308 307 307 307 305 298 294 293 293 293 293 291 292 292 290 287 287 287 286 285 283 284 284 283 283 283 283 282 282
303 305 307 309 309 309 311 310 309 309 308 305 302 302 301 302 302 301 294 292 292 292 292 292 291 291 290 290 289 288 287 286 284 284 282 282 282 283 283 283 282 282 282

GFSSE_925_thetae_063.txt.gz
Theta_e
337 336 335 335 336 335 337 338 337 336 336 335 334 334 333 333 332 331 331 333 334 334 333 333 335 336 336 335 333 332 330 328 329 329 331 331 333 334 333 334 336 337 337
337 336 336 336 337 334 337 339 337 337 335 335 334 333 332 332 332 331 330 330 333 333 334 333 335 334 335 334 330 327 326 326 325 327 327 328 329 330 330 330 332 334 334
337 336 336 336 335 333 338 340 338 336 329 333 331 331 330 329 329 328 328 329 329 331 333 332 334 333 332 330 326 323 318 316 320 323 325 327 327 328 328 328 328 330 331
337 337 335 334 332 333 338 339 338 336 335 335 332 331 329 328 326 325 324 325 326 329 330 332 333 332 329 327 325 321 315 316 317 319 323 325 325 326 326 326 326 326 326
337 336 335 332 331 335 337 338 338 335 335 334 333 332 327 325 322 319 321 321 322 325 328 330 331 329 325 321 316 314 315 317 319 321 324 325 325 325 325 325 324 324 324
337 336 332 332 335 336 336 337 338 335 331 332 331 328 325 325 323 321 317 319 320 322 324 326 327 323 317 314 314 315 318 320 322 323 324 325 325 325 325 324 324 323 323
337 336 333 334 334 335 335 337 336 336 333 331 328 327 326 325 324 322 317 316 317 319 320 321 321 318 313 309 307 311 315 318 321 323 324 324 324 324 324 324 323 323 323
337 336 334 334 333 333 334 335 336 336 335 331 329 328 327 325 323 321 320 317 316 317 317 317 317 310 305 302 306 311 315 317 319 320 322 325 327 328 327 327 325 324 323
338 337 335 334 333 333 333 334 334 334 334 333 330 328 326 325 323 322 321 320 317 315 313 309 305 303 302 301 302 307 312 314 317 318 320 320 320 321 323 323 323 324 325
339 338 336 335 334 334 334 333 333 333 333 333 331 329 327 325 323 322 321 320 318 315 309 304 303 302 302 302 302 305 310 314 317 318 319 319 319 319 319 319 319 320 321
339 339 338 337 336 336 334 334 334 333 332 332 333 329 327 325 323 322 321 320 319 316 313 309 308 308 308 309 310 311 314 318 318 319 320 320 322 322 322 321 320 320 319
338 339 339 338 337 337 335 335 335 334 333 332 332 331 328 327 325 323 322 321 320 318 315 313 313 312 312 310 310 313 316 316 316 315 316 318 319 320 319 319 319 319 320
338 339 337 338 336 336 336 335 335 336 333 332 332 332 330 328 327 324 322 322 321 318 317 315 314 314 312 311 310 311 313 313 312 311 313 314 316 316 316 315 315 315 314
336 334 334 335 334 333 336 336 336 337 334 332 332 332 331 330 328 326 324 323 322 319 317 316 316 314 312 310 310 310 310 310 308 306 307 309 310 311 311 311 312 311 311
331 332 331 332 332 333 333 334 334 332 335 333 332 332 332 331 329 327 325 324 322 320 319 318 317 314 311 310 309 309 306 305 302 301 301 303 304 305 307 308 309 309 308
329 330 330 330 330 331 332 332 333 331 333 334 333 332 332 331 330 329 326 325 323 321 321 319 317 313 310 308 305 303 299 296 294 293 293 293 296 300 303 305 306 306 305
325 324 324 324 325 326 329 330 331 331 331 333 333 332 332 332 331 330 327 324 322 321 321 319 316 312 308 304 300 298 295 293 292 291 290 290 290 292 300 300 300 301 301
313 313 313 313 312 312 313 318 328 330 330 334 335 333 332 332 332 330 328 325 322 321 320 318 314 308 303 299 296 292 291 291 290 289 289 289 288 288 289 292 294 296 298
311 310 310 310 310 310 311 312 316 326 329 331 332 333 333 333 331 330 327 325 321 320 319 317 312 309 300 294 291 289 289 289 289 288 288 287 287 286 286 286 287 290 294
310 309 309 309 309 311 311 314 321 322 325 329 330 332 332 332 331 329 326 323 320 319 317 314 311 302 299 293 288 287 287 286 287 287 286 286 286 286 286 286 286 286 286
307 307 308 308 310 312 312 316 319 321 322 324 329 330 330 330 330 328 326 323 318 319 316 313 308 302 291 291 288 285 284 285 285 285 285 285 285 285 285 285 285 285 285
306 306 307 308 310 312 312 316 317 319 320 324 323 324 324 328 327 326 322 321 317 317 314 310 307 294 290 292 291 291 291 288 284 284 284 284 284 284 285 284 284 284 284
304 306 306 307 309 312 313 315 316 316 317 318 318 322 323 323 324 322 320 318 317 316 313 309 306 301 292 294 294 298 297 299 292 284 284 284 284 284 284 283 283 283 284
304 305 305 307 309 311 312 313 315 315 313 315 318 320 321 320 320 319 317 317 315 313 310 308 305 303 301 298 296 295 294 295 293 289 283 283 283 283 283 283 283 283 283
302 303 304 306 308 310 311 312 313 313 314 317 316 315 314 315 314 316 316 314 309 304 305 306 304 302 301 301 297 290 289 288 287 287 287 284 283 283 283 283 283 283 283
302 303 304 305 308 309 311 311 312 312 311 314 311 310 310 310 310 311 312 308 301 301 304 304 303 301 301 300 297 291 289 288 286 286 285 284 284 282 283 282 282 282 282

GFSSE_925_thetae_069.txt.gz
Theta_e
336 338 331 334 333 335 337 337 335 333 335 335 334 334 333 333 334 333 333 333 333 339 339 337 334 331 331 331 331 330 330 330 328 330 331 332 332 333 333 333 333 335 335
338 338 331 333 334 336 338 335 335 334 335 334 334 333 332 332 333 333 332 332 335 338 336 334 332 330 328 327 328 328 327 327 327 327 327 328 328 329 330 329 331 332 332
338 338 335 335 334 337 336 334 334 334 334 334 333 331 331 331 331 332 332 331 334 335 334 332 330 329 327 326 327 325 324 324 325 325 325 325 326 327 327 327 327 328 329
339 339 338 336 334 337 336 332 329 331 334 332 330 329 328 328 329 330 332 330 335 334 332 331 328 327 326 326 325 323 324 325 325 325 325 325 325 326 326 325 325 325 326
340 340 340 335 335 338 338 334 330 331 332 332 331 329 326 325 326 328 330 331 332 332 328 327 326 325 325 325 324 324 324 325 325 325 325 325 325 325 325 325 325 324 324
340 340 340 335 334 338 338 335 332 332 333 333 332 330 326 324 324 326 328 329 329 327 325 324 324 322 322 320 321 324 325 325 325 326 327 325 325 327 326 327 327 325 325
340 340 338 334 335 337 338 336 333 332 333 332 330 328 325 323 322 324 325 326 327 324 322 320 321 320 320 318 322 323 326 326 326 325 327 328 328 329 329 327 326 326 328
339 340 338 333 335 336 338 337 334 334 333 332 329 327 324 322 321 322 323 324 323 320 318 317 319 319 316 317 319 320 321 321 322 321 322 323 324 325 325 324 323 323 323
339 339 338 337 336 334 335 336 335 334 333 332 329 327 324 321 319 319 319 321 320 317 315 316 315 316 314 315 318 319 320 320 322 321 322 321 321 321 321 321 322 320 320
339 339 339 338 338 337 336 335 336 334 332 330 327 324 322 321 319 318 317 318 317 315 312 310 309 310 313 316 321 321 322 322 322 323 322 322 324 325 324 322 320 318 317
338 338 338 338 338 337 337 336 335 335 332 329 326 324 324 324 322 323 319 315 313 311 308 305 304 308 312 316 319 318 319 320 321 321 321 322 323 323 321 319 318 316 315
340 339 338 338 338 337 337 336 337 335 334 332 328 325 329 328 326 321 317 315 313 311 309 309 311 314 316 317 316 317 318 317 318 317 319 319 320 318 317 316 315 314 312
338 339 338 338 338 338 337 337 337 336 335 334 332 329 330 329 325 321 317 314 312 313 311 312 313 315 316 316 315 315 316 315 313 314 315 316 318 316 315 314 313 311 310
336 337 338 338 338 338 338 338 338 337 336 335 334 332 331 328 325 322 320 318 316 316 315 314 314 314 314 313 312 311 312 312 311 311 313 313 314 314 313 311 310 309 308
335 336 337 338 339 339 339 338 336 337 336 336 335 333 332 327 326 324 323 318 317 317 316 314 313 311 310 309 308 307 308 308 307 307 309 311 312 312 311 309 308 308 307
334 335 336 337 336 335 335 336 335 336 336 335 335 334 333 330 328 325 323 318 318 317 315 313 311 311 309 305 302 301 302 303 302 303 306 307 307 307 307 307 307 306 305
334 334 335 335 335 334 333 333 334 334 335 336 334 335 333 332 329 326 323 320 319 317 315 312 311 310 310 301 298 296 295 295 297 299 301 300 302 303 304 304 304 304 304
332 332 333 331 330 331 331 332 332 333 334 334 335 334 334 333 331 327 324 323 320 317 316 312 311 305 306 300 296 294 293 292 292 293 295 296 296 298 300 301 301 302 302
328 331 331 329 327 328 329 330 330 331 332 333 333 334 334 333 332 328 326 324 321 319 317 314 305 304 301 297 295 293 292 291 291 291 290 291 293 294 295 296 297 298 299
325 328 328 328 325 326 327 326 327 329 329 331 332 332 333 333 332 329 326 324 322 318 316 311 305 300 298 297 294 293 292 291 291 290 289 289 288 288 289 290 292 295 296
320 323 325 325 324 324 323 322 322 323 325 326 328 328 329 333 331 329 327 325 321 319 317 311 307 299 295 294 292 291 291 290 290 290 289 288 287 287 287 287 288 289 290
316 319 319 319 319 319 319 318 318 318 318 319 319 325 328 330 330 328 328 326 323 318 311 310 306 296 293 294 296 294 293 290 289 289 289 288 287 286 286 286 286 287 288
314 315 316 315 315 315 316 317 316 316 316 315 315 319 326 328 328 328 328 327 324 318 312 314 307 302 294 295 296 300 297 299 291 288 288 288 287 286 285 285 284 285 285
314 313 313 314 314 314 315 316 316 316 315 313 312 314 323 325 325 326 326 324 322 319 313 315 309 305 299 296 297 300 300 297 296 290 288 287 287 287 286 285 284 284 284
314 313 313 312 313 313 315 315 316 314 313 315 316 313 320 323 323 323 321 324 319 314 317 313 307 302 301 299 299 297 297 298 298 294 290 288 286 286 286 285 284 284 283
313 312 312 311 312 312 313 315 315 314 314 317 315 311 316 320 319 320 320 319 319 316 314 314 308 303 301 300 300 298 296 295 294 294 293 289 287 286 286 285 284 284 283

GFSSE_925_thetae_072.txt.gz
Theta_e
335 332 333 334 334 336 336 334 334 334 334 334 333 333 334 332 333 333 331 338 337 337 333 331 330 330 330 329 331 331 331 328 327 330 331 332 332 332 332 332 333 334 335
336 337 332 333 334 336 336 335 333 333 335 334 333 332 333 334 333 331 332 337 336 335 332 330 329 328 328 328 328 328 327 326 325 325 326 328 328 329 329 330 330 332 332
338 337 332 334 335 336 335 335 333 334 334 333 332 332 332 332 334 331 331 335 334 333 331 328 327 327 327 326 324 324 325 325 325 325 325 326 327 327 327 327 327 329 329
338 336 333 335 334 336 333 331 333 333 333 331 330 330 330 330 332 331 331 334 333 331 329 327 326 326 326 325 325 325 325 326 326 325 324 325 325 326 326 326 326 326 326
338 339 338 335 334 336 333 330 331 332 332 331 329 328 327 329 330 331 333 333 330 329 327 326 326 326 325 325 324 324 325 324 324 323 324 324 323 326 326 325 326 325 325
339 339 340 334 334 337 335 330 329 330 333 332 329 327 326 326 329 330 331 328 326 326 326 324 325 323 323 324 326 327 328 328 327 328 327 329 330 330 328 329 327 326 325
339 341 339 335 335 338 336 332 330 330 332 331 328 325 324 325 327 328 329 327 325 324 323 323 323 318 323 324 325 325 324 326 326 325 326 327 327 328 327 326 325 325 324
339 339 337 334 335 337 337 334 332 332 333 331 328 325 324 324 325 326 326 323 322 321 321 321 316 317 321 321 321 321 321 321 320 320 320 321 323 323 323 322 322 322 321
339 340 337 334 335 336 337 335 334 332 332 328 326 323 321 321 322 323 324 321 319 319 320 320 313 316 319 319 320 321 322 321 321 319 320 321 323 325 323 322 321 320 319
338 339 338 335 336 335 336 336 334 333 332 329 326 323 321 319 317 318 319 318 317 317 319 317 313 318 320 322 322 322 322 322 322 323 324 324 324 323 321 319 317 316 315
336 338 338 338 337 336 335 336 335 333 331 328 325 323 321 319 318 318 316 315 314 316 319 311 312 319 319 319 320 320 320 321 321 322 322 323 322 321 319 317 314 313 312
336 338 338 337 336 336 336 335 336 334 331 328 325 324 324 324 323 319 315 312 309 306 304 308 312 316 317 317 318 318 318 318 319 320 320 319 319 319 317 313 313 311 310
335 338 338 338 337 336 337 336 335 335 333 329 325 328 327 327 323 318 315 313 311 309 311 315 316 316 316 316 316 315 315 316 317 317 317 316 318 316 314 312 311 310 309
338 338 337 338 337 337 337 336 335 336 334 333 329 330 329 328 323 318 316 314 312 312 313 314 314 315 315 314 314 314 313 313 314 314 315 314 315 313 312 311 310 309 308
336 338 336 337 336 337 337 337 336 337 335 334 333 330 330 329 323 319 318 315 316 314 314 314 314 314 313 311 311 310 310 311 311 311 312 312 312 311 310 310 309 308 307
334 335 337 336 337 336 337 337 337 337 336 335 334 332 332 329 325 322 321 318 317 316 315 314 313 311 310 310 308 308 306 307 308 309 310 310 308 309 309 308 308 307 306
333 334 336 337 336 336 338 338 337 335 337 335 335 335 333 331 326 325 323 319 318 317 315 313 311 309 307 304 305 304 302 302 304 306 306 306 306 305 306 306 305 305 304
331 334 335 336 336 337 336 336 336 335 334 336 335 334 334 332 330 327 324 319 318 317 315 314 312 308 303 301 299 297 297 298 300 299 298 301 303 302 303 303 303 303 303
329 333 334 334 336 336 335 334 333 333 334 333 334 335 334 333 332 329 326 320 319 318 315 314 312 310 301 297 295 294 293 292 293 296 295 295 296 299 299 300 300 300 301
327 331 333 334 334 333 332 331 332 332 332 333 333 334 335 334 333 330 328 323 320 319 315 313 312 305 301 296 294 292 291 291 291 290 290 292 293 292 294 296 297 297 298
323 326 331 332 331 329 329 329 330 330 330 331 330 332 332 333 333 331 328 325 322 320 317 313 308 302 297 295 293 291 291 291 290 289 289 288 288 288 289 290 291 292 294
319 323 328 330 330 327 327 327 327 328 328 329 328 329 330 330 330 331 329 326 324 319 313 309 308 299 295 295 295 292 291 289 290 289 289 288 287 287 287 287 287 288 289
316 320 325 327 327 326 325 325 324 324 323 324 325 326 327 326 327 329 329 325 323 319 316 315 311 306 296 295 297 298 293 292 289 289 289 288 287 286 286 286 286 287 287
315 316 319 322 324 324 323 322 320 319 317 317 318 318 318 321 323 326 327 326 324 319 316 315 313 307 299 296 296 300 299 295 290 287 288 288 287 287 286 285 285 285 285
315 314 315 318 318 318 318 318 317 316 316 316 315 315 315 312 319 322 323 325 323 320 318 317 313 303 307 300 300 299 300 295 295 289 286 287 287 287 286 285 285 284 284
316 315 314 314 315 315 315 316 316 316 316 316 314 313 313 310 314 318 321 322 322 319 318 317 314 307 307 301 300 300 300 297 297 292 287 286 286 287 287 286 285 284 284

GFSSE_925_thetae_075.txt.gz
Theta_e
333 333 332 333 335 337 333 334 334 333 334 334 335 335 333 333 331 336 337 335 332 331 330 330 330 330 331 331 331 330 329 330 331 331 332 332 333 332 332 332 333 334 335
331 333 331 333 336 337 333 331 333 333 334 333 333 334 333 333 334 336 336 333 332 329 329 328 328 329 329 329 329 328 327 325 325 326 328 328 329 331 331 331 330 331 331
333 332 332 333 336 335 334 332 332 333 333 332 332 332 333 333 334 335 335 332 331 329 328 327 327 328 327 325 326 328 327 325 325 326 326 326 327 328 329 327 328 328 328
335 331 332 334 336 334 334 333 333 332 332 332 331 331 332 333 334 335 334 331 329 328 327 326 326 328 327 326 326 326 324 323 324 323 325 325 326 327 326 327 327 326 326
336 331 333 333 335 333 329 330 330 329 330 330 329 329 331 332 333 335 333 330 328 327 326 326 328 328 324 324 326 324 323 322 324 323 325 327 327 327 327 328 327 328 328
336 333 334 333 335 334 329 329 329 330 331 329 328 328 329 331 331 332 330 327 327 326 326 325 327 327 328 327 326 324 324 325 328 328 329 327 329 330 327 326 325 325 325
338 338 335 334 336 335 330 329 329 332 332 329 327 326 328 329 330 330 328 325 326 325 325 325 327 325 325 325 327 326 327 326 326 327 327 326 326 327 325 325 324 323 323
339 339 337 334 336 337 333 329 328 333 330 326 324 322 326 327 328 327 325 324 323 323 324 324 324 322 322 323 322 321 323 321 321 322 322 323 323 323 323 322 322 321 320
338 339 336 333 336 337 335 332 330 332 330 326 323 322 323 323 325 324 322 321 322 322 322 323 322 321 320 320 320 320 319 319 318 318 320 323 323 323 322 321 319 318 316
338 337 335 333 335 337 335 333 332 331 328 326 323 321 320 320 320 320 318 319 321 322 321 322 320 321 322 322 321 321 322 323 324 324 325 323 322 320 318 317 315 314 314
337 337 336 332 335 336 336 334 333 332 329 327 323 321 319 317 317 316 314 315 319 319 318 316 320 320 321 321 321 321 321 323 324 324 323 322 321 318 315 314 313 312 312
338 336 336 334 334 335 336 335 334 332 330 327 324 321 319 318 317 315 312 311 312 307 310 317 318 318 318 319 319 320 321 321 321 320 320 320 319 316 314 312 312 311 310
336 336 335 336 336 334 334 334 335 333 331 327 324 322 323 323 320 316 313 310 307 305 312 316 316 316 317 317 318 317 319 319 318 317 317 317 317 315 312 312 310 310 309
336 335 335 335 336 335 335 334 334 334 332 329 324 325 325 325 320 317 315 312 309 309 314 316 316 316 316 315 316 317 317 316 316 315 315 315 314 313 312 311 310 309 308
336 335 336 335 335 336 335 335 334 334 334 331 325 327 326 326 321 318 316 314 312 314 314 315 315 316 314 314 314 314 314 314 314 313 314 313 311 311 311 310 309 308 307
335 334 336 335 334 334 334 335 334 335 334 333 330 328 329 328 325 318 316 313 313 314 314 314 315 315 313 313 312 313 312 312 312 312 311 310 310 310 310 309 309 308 306
334 336 337 336 335 334 334 334 335 336 335 335 334 330 330 329 328 321 318 315 315 314 315 315 314 313 311 310 310 309 310 310 310 310 310 308 309 308 308 308 307 307 305
331 333 336 337 335 335 334 334 335 336 336 336 335 334 330 331 329 325 321 318 317 315 315 314 313 311 309 308 306 305 305 306 308 307 307 307 306 306 305 305 305 305 305
329 331 334 336 336 335 334 334 336 337 336 336 336 335 334 333 331 329 324 322 317 317 315 314 311 309 305 303 303 302 302 302 301 303 304 304 304 303 303 303 303 303 303
325 329 332 335 336 336 334 335 337 337 336 334 336 335 335 334 332 330 327 325 319 317 315 313 311 306 303 298 295 294 295 296 298 297 297 297 300 300 300 301 301 301 301
321 326 330 334 335 336 336 336 336 335 333 334 333 333 334 334 333 331 329 327 321 318 317 314 309 304 297 295 293 291 290 291 291 291 293 294 294 295 296 298 299 298 298
317 323 328 332 334 334 335 334 333 331 331 333 333 333 333 334 334 332 330 328 323 319 315 313 309 298 295 295 294 291 291 289 290 289 289 289 290 290 291 293 295 294 294
315 319 325 329 332 333 333 331 330 329 329 330 331 331 331 329 332 332 330 329 326 320 319 315 310 303 297 294 297 298 293 294 288 289 289 288 288 288 288 288 288 288 288
314 316 321 324 328 331 331 329 328 327 326 327 327 329 329 329 328 328 330 328 327 323 321 315 311 308 301 297 296 300 299 294 290 287 288 288 288 287 286 286 287 287 287
314 314 316 321 326 329 330 328 326 325 324 324 324 324 328 328 327 327 327 327 325 324 320 320 312 306 305 302 300 300 298 295 292 289 289 287 287 287 286 286 286 286 286
314 313 314 318 323 326 326 326 325 322 321 319 319 318 319 321 322 323 323 323 323 322 320 321 317 311 308 307 301 302 302 296 293 290 287 287 287 287 287 286 285 285 285